SL-14 DEB, 47079

Orbit data source: Space-Track

SL-14 DEB, 47079 is space debris in LEO originally from a launch on Thu, 15 Aug 1991 UTC launched from the Plesetsk Missile And Space Complex (PKMTR). Debris objects in space refer to the collection of defunct objects orbiting the Earth. Examples of debris include non-operational satellites, rocket bodies, and fragments generated from explosions, collisions, or faulty payload assembly.

Loading next visibility...
Identifier
47079, 1991-056DD
Orbit
LEO
Country
Flag of CISCIS
Related business
Manufacturer
Unknown
Mission
Spacecraft
Bus & Motor
Unknown
Mass
Unknown
Launch date (UTC)
1991-08-15 (34 years ago)
Launch vehicle
Unknown
Launch site
Plesetsk Missile And Space Complex (PKMTR)
Object type
Payload
Rocket body
Debris
Shape & HBR
Unknown shape, 0.1 m
Radar Cross Section
Small (<0.1 m²)

Expand to show TLE details & history
Last TLE update: 2 weeks ago

TLE from 2 weeks ago
0 SL-14 DEB
1 47079U 91056DD  25276.79681158  .00000955  00000-0  21877-2 0  9991
2 47079  82.5434 303.1103 0028717 285.7329  74.0631 13.24534454237780
Epoch: 2025-10-03T19:07Z
TLE epoch observation values (Epoch: 2025-10-03T19:07:24.520Z)
Latitude
0.00001°
Longitude
3.52016°
Altitude
1,164.374 km
Speed
7.274 km/s
True Right ascension
20h 12m 26s
True Declination
0° 00' 00"
Sunlit
Object was in daylight at epoch
Visualization orbit readout
Latitude
Unknown
Longitude
Unknown
Altitude
Unknown
Speed
Unknown
Apparent Right ascension
Unknown
Apparent Declination
Unknown
Sunlit
N/A
Visualization observer readout
Local Sidereal Time
02:54:08
Azimuth
Unknown
Elevation
Unknown
Doppler factor
Unknown
Orbital elements
Apogee altitude
1,186.345 km
Perigee altitude
1,143.023 km
Semi-major axis
7,542.821 km
Eccentricity
0.00287
Inclination
82.5434°
RAAN
303.1103°
Arg. of periapsis
285.7329°
True anomaly
74.37984°
Mean anomaly
74.0631°
Eccentric anomaly
74.22144°
Mean motion
3.31316 °/min
Orbital period
108.66 mins
BSTAR
0.0021877
Loading maneuver chart data...
Computing Atmospheric mass density...
Loading historical data...
Loading historical data...
Loading historical data...
Loading historical data...
Loading historical data...
Loading historical data...
Loading historical data...

Documentation

Showing up to 5 results
|